FW9021 Weather Reports


time (UTC)temp
C
wind
direction
speed
KPH
gust
KPH
rain 1hr
cm
rain 24hr
cm
rain mn
cm
humidity
%
barometer
mb
20260906111039 21 63 1.6 4.8 0.00 0.00 0.00 82 1013.9
20260906110541 21 74 0.0 3.2 0.00 0.00 0.00 82 1013.9
20260906110053 21 0 0.0 3.2 0.00 0.00 0.00 82 1013.8
20260906105539 21 46 1.6 3.2 0.00 0.00 0.00 82 1013.9
20260906105039 21 0 0.0 3.2 0.00 0.00 0.00 82 1013.9
20260906104602 21 0 1.6 4.8 0.00 0.00 0.00 82 1013.7
20260906104041 21 0 0.0 4.8 0.00 0.00 0.00 82 1013.6
20260906103539 21 45 1.6 4.8 0.00 0.00 0.00 82 1013.7
20260906103058 21 0 0.0 4.8 0.00 0.00 0.00 82 1013.5
20260906102540 21 67 1.6 4.8 0.00 0.00 0.00 82 1013.5
20260906102041 21 85 1.6 4.8 0.00 0.00 0.00 82 1013.6
20260906101554 21 0 1.6 4.8 0.00 0.00 0.00 82 1013.5
20260906101040 21 85 1.6 6.4 0.00 0.00 0.00 82 1013.6
20260906100540 21 0 1.6 6.4 0.00 0.00 0.00 82 1013.7
20260906100050 21 76 3.2 6.4 0.00 0.00 0.00 82 1013.8
20260906095543 21 61 1.6 4.8 0.00 0.00 0.00 82 1013.7
20260906095042 21 32 0.0 3.2 0.00 0.00 0.00 82 1013.8
20260906094557 21 32 0.0 4.8 0.00 0.00 0.00 82 1013.9
20260906094041 21 0 1.6 4.8 0.00 0.00 0.00 82 1013.9
20260906093539 21 82 1.6 4.8 0.00 0.00 0.00 82 1013.8
20260906093116 21 171 1.6 6.4 0.00 0.00 0.00 82 1013.8
20260906092538 21 0 0.0 6.4 0.00 0.00 0.00 82 1013.8
20260906092039 21 331 3.2 12.9 0.00 0.00 0.00 82 1013.9
20260906091556 21 0 1.6 14.5 0.00 0.00 0.00 83 1013.7
20260906091041 21 58 8.0 20.9 0.00 0.00 0.00 82 1013.9
20260906090539 21 5 6.4 20.9 0.00 0.00 0.00 82 1013.7
20260906090053 21 355 14.5 20.9 0.00 0.00 0.00 82 1013.8
20260906085541 21 5 3.2 4.8 0.00 0.00 0.00 82 1013.6
20260906085041 21 69 0.0 3.2 0.00 0.00 0.00 82 1013.4
20260906084558 21 109 0.0 3.2 0.00 0.00 0.00 82 1013.3
20260906084041 21 109 0.0 3.2 0.00 0.00 0.00 83 1013.4
20260906083539 21 109 1.6 3.2 0.00 0.00 0.00 83 1013.4
20260906083058 21 109 0.0 3.2 0.00 0.00 0.00 83 1013.5
20260906082538 21 0 0.0 4.8 0.00 0.00 0.00 83 1013.4
20260906082038 21 109 1.6 4.8 0.00 0.00 0.00 83 1013.4
20260906081556 21 0 1.6 4.8 0.00 0.00 0.00 83 1013.4
20260906081042 21 98 0.0 3.2 0.00 0.00 0.00 83 1013.6
20260906080538 21 49 0.0 3.2 0.00 0.00 0.00 83 1013.5
20260906080054 21 0 0.0 4.8 0.00 0.00 0.00 83 1013.4
20260906075542 21 59 1.6 4.8 0.00 0.00 0.00 83 1013.5
20260906075042 21 83 0.0 4.8 0.00 0.00 0.00 83 1013.5
20260906074548 21 0 0.0 0.0 0.00 0.00 0.00 83 1013.3
20260906074041 21 0 0.0 3.2 0.00 0.00 0.00 83 1013.1
20260906073541 21 0 0.0 3.2 0.00 0.00 0.00 83 1013.1
20260906073056 21 0 0.0 3.2 0.00 0.00 0.00 83 1013.1
20260906072539 21 96 0.0 3.2 0.00 0.00 0.00 83 1013.1
20260906072037 21 0 1.6 3.2 0.00 0.00 0.00 83 1013.2
20260906071557 21 108 1.6 3.2 0.00 0.00 0.00 83 1013.4
20260906071038 21 0 0.0 3.2 0.00 0.00 0.00 83 1013.4
20260906070539 21 95 1.6 6.4 0.00 0.00 0.00 83 1013.4
20260906070055 21 51 1.6 6.4 0.00 0.00 0.00 83 1013.4
20260906065538 22 31 3.2 6.4 0.00 0.00 0.00 83 1013.5
20260906065038 22 42 1.6 6.4 0.00 0.00 0.00 83 1013.6
20260906064548 22 39 1.6 4.8 0.00 0.00 0.00 83 1013.6
20260906064037 22 0 0.0 3.2 0.00 0.00 0.00 83 1013.6
20260906063539 22 0 0.0 3.2 0.00 0.00 0.00 83 1013.6
20260906063047 22 103 0.0 4.8 0.00 0.00 0.00 83 1013.6
20260906062540 22 55 1.6 6.4 0.00 0.00 0.00 82 1013.6
20260906062039 22 35 1.6 6.4 0.00 0.00 0.00 82 1013.6
20260906061559 22 28 3.2 6.4 0.00 0.00 0.00 82 1013.7
20260906061039 22 74 3.2 6.4 0.00 0.00 0.00 82 1013.7
20260906060539 22 76 0.0 3.2 0.00 0.00 0.00 83 1013.6
20260906060055 22 107 0.0 3.2 0.00 0.00 0.00 83 1013.7
20260906055540 22 107 0.0 3.2 0.00 0.00 0.00 83 1013.8
20260906055039 22 0 0.0 3.2 0.00 0.00 0.00 83 1013.8
20260906054557 22 107 0.0 3.2 0.00 0.00 0.00 83 1013.9
20260906054040 22 0 0.0 3.2 0.00 0.00 0.00 83 1014.1
20260906053539 22 0 0.0 4.8 0.00 0.00 0.00 83 1014.1
20260906053050 22 0 1.6 4.8 0.00 0.00 0.00 83 1014.2
20260906052542 22 104 0.0 6.4 0.00 0.00 0.00 83 1014.2
20260906052040 22 117 1.6 6.4 0.00 0.00 0.00 83 1014.3
20260906051555 22 83 1.6 4.8 0.00 0.00 0.00 83 1014.4
20260906051039 22 82 1.6 3.2 0.00 0.00 0.00 83 1014.5
20260906050541 22 82 0.0 4.8 0.00 0.00 0.00 83 1014.5
20260906050119 22 82 1.6 6.4 0.00 0.00 0.00 83 1014.5
20260906045539 22 42 3.2 6.4 0.00 0.00 0.00 83 1014.4
20260906045039 22 72 3.2 6.4 0.00 0.00 0.00 83 1014.4
20260906044549 22 27 3.2 6.4 0.00 0.00 0.00 83 1014.4
20260906044038 22 340 3.2 6.4 0.00 0.00 0.00 83 1014.5
20260906043539 22 303 0.0 4.8 0.00 0.00 0.00 83 1014.4
20260906043058 22 28 1.6 3.2 0.00 0.00 0.00 83 1014.3
20260906042540 22 120 0.0 3.2 0.00 0.00 0.00 84 1014.3
20260906042039 22 120 0.0 3.2 0.00 0.00 0.00 84 1014.3
20260906041554 22 0 0.0 3.2 0.00 0.00 0.00 83 1014.2
20260906041039 22 120 0.0 4.8 0.00 0.00 0.00 84 1014.1
20260906040539 22 120 1.6 4.8 0.00 0.00 0.00 84 1014.1
20260906040100 22 44 1.6 4.8 0.00 0.00 0.00 84 1014.2
20260906035541 22 0 0.0 3.2 0.00 0.00 0.00 84 1014.3
20260906035039 23 0 0.0 3.2 0.00 0.00 0.00 84 1014.3
20260906034559 23 0 0.0 3.2 0.00 0.00 0.00 84 1014.4
20260906034039 23 0 0.0 3.2 0.00 0.00 0.00 83 1014.5
20260906033538 23 64 0.0 6.4 0.00 0.00 0.00 83 1014.5
20260906033108 23 0 0.0 6.4 0.00 0.00 0.00 84 1014.4
20260906032544 23 58 4.8 6.4 0.00 0.00 0.00 84 1014.4
20260906032038 23 91 0.0 3.2 0.00 0.00 0.00 84 1014.4
20260906031552 23 0 0.0 3.2 0.00 0.00 0.00 84 1014.4
20260906031038 23 91 0.0 4.8 0.00 0.00 0.00 84 1014.4
20260906030538 23 54 1.6 4.8 0.00 0.00 0.00 84 1014.4
20260906030059 23 30 1.6 4.8 0.00 0.00 0.00 84 1014.3
20260906025539 23 55 1.6 3.2 0.00 0.00 0.00 84 1014.4
20260906025040 23 55 0.0 3.2 0.00 0.00 0.00 84 1014.3
20260906024612 23 55 1.6 3.2 0.00 0.00 0.00 84 1014.3
20260906024038 23 0 0.0 3.2 0.00 0.00 0.00 84 1014.3
20260906023538 23 0 0.0 3.2 0.00 0.00 0.00 84 1014.2
20260906023057 23 26 0.0 3.2 0.00 0.00 0.00 84 1014.3
20260906022538 23 0 0.0 3.2 0.00 0.00 0.00 84 1014.3
20260906022039 24 0 0.0 3.2 0.00 0.00 0.00 84 1014.3
20260906021557 24 0 1.6 4.8 0.00 0.00 0.00 84 1014.4
20260906021039 24 0 0.0 4.8 0.00 0.00 0.00 84 1014.2
20260906020538 24 79 1.6 4.8 0.00 0.00 0.00 84 1014.2
20260906020058 24 42 0.0 3.2 0.00 0.00 0.00 84 1014.3
20260906015538 24 0 0.0 3.2 0.00 0.00 0.00 84 1014.2
20260906015038 24 0 0.0 3.2 0.00 0.00 0.00 84 1014.2
20260906014601 24 67 0.0 3.2 0.00 0.00 0.00 84 1014.1
20260906014039 24 67 0.0 3.2 0.00 0.00 0.00 84 1014.0
20260906013538 24 67 0.0 3.2 0.00 0.00 0.00 84 1013.7
20260906013050 24 0 0.0 3.2 0.00 0.00 0.00 84 1013.6
20260906012537 24 90 0.0 3.2 0.00 0.00 0.00 84 1013.7
20260906012039 24 90 1.6 3.2 0.00 0.00 0.00 84 1013.7
20260906011559 24 90 1.6 3.2 0.00 0.00 0.00 84 1013.6
20260906011039 25 90 0.0 3.2 0.00 0.00 0.00 84 1013.6
20260906010539 25 0 0.0 3.2 0.00 0.00 0.00 84 1013.5
20260906010059 25 355 1.6 3.2 0.00 0.00 0.00 84 1013.4
20260906005539 25 40 0.0 4.8 0.00 0.00 0.00 84 1013.3
20260906005041 25 0 0.0 4.8 0.00 0.00 0.00 84 1013.1
20260906004555 25 40 3.2 4.8 0.00 0.00 0.00 84 1013.1
20260906004038 25 25 0.0 3.2 0.00 0.00 0.00 84 1013.2
20260906003538 25 85 1.6 3.2 0.00 0.00 0.00 84 1013.1
20260906003101 25 85 1.6 3.2 0.00 0.00 0.00 84 1013.2
20260906002538 25 85 1.6 4.8 0.00 0.00 0.00 84 1013.2
20260906002038 25 36 0.0 4.8 0.00 0.00 0.00 84 1013.2
20260906001559 26 36 1.6 8.0 0.00 0.00 0.00 84 1013.2
20260906001038 26 0 0.0 8.0 0.00 0.00 0.00 84 1013.3
20260906000538 26 30 4.8 8.0 0.00 0.00 0.00 83 1013.3
20260906000057 26 24 4.8 6.4 0.00 0.00 0.00 83 1013.4
20260905235538 26 347 0.0 3.2 0.00 0.00 0.00 83 1013.4
20260905235038 26 0 0.0 8.0 0.00 0.00 0.00 82 1013.4
20260905234610 26 0 1.6 8.0 0.00 0.00 0.00 82 1013.4
20260905234038 27 263 0.0 1.6 0.00 0.00 0.00 82 1013.4
20260905233538 27 0 0.0 1.6 0.00 0.00 0.00 81 1013.4
20260905233100 26 0 0.0 0.0 0.00 0.00 0.00 80 1013.2
20260905232536 27 0 0.0 0.0 0.00 0.00 0.00 80 1013.1
20260905232039 27 0 0.0 0.0 0.00 0.00 0.00 80 1013.1
20260905231557 27 0 0.0 1.6 0.00 0.00 0.00 80 1013.1
20260905231038 27 0 0.0 4.8 0.00 0.00 0.00 79 1013.1
20260905230542 27 0 0.0 6.4 0.00 0.00 0.00 79 1013.0
20260905230126 27 236 3.2 6.4 0.00 0.00 0.00 79 1013.2
20260905225542 27 246 3.2 6.4 0.00 0.00 0.00 78 1013.1
20260905225038 27 252 1.6 4.8 0.00 0.00 0.00 78 1013.2
20260905224600 27 0 0.0 3.2 0.00 0.00 0.00 78 1013.2
20260905224038 27 21 0.0 3.2 0.00 0.00 0.00 78 1013.2
20260905223538 27 109 0.0 3.2 0.00 0.00 0.00 77 1013.2
20260905223057 27 88 0.0 6.4 0.00 0.00 0.00 77 1013.3
20260905222541 27 0 0.0 12.9 0.00 0.00 0.00 76 1013.4
20260905222038 27 218 3.2 14.5 0.00 0.00 0.00 77 1013.4
20260905221557 27 236 8.0 14.5 0.00 0.00 0.00 77 1013.4
20260905221038 27 242 8.0 14.5 0.00 0.00 0.00 74 1013.5
20260905220538 27 235 9.7 12.9 0.00 0.00 0.00 71 1013.5
20260905220108 27 244 6.4 12.9 0.00 0.00 0.00 71 1013.4
20260905215538 27 292 3.2 9.7 0.00 0.00 0.00 72 1013.2
20260905215041 27 22 4.8 12.9 0.00 0.00 0.00 72 1013.1
20260905214557 26 360 4.8 12.9 0.00 0.00 0.00 73 1013.2
20260905214038 26 294 6.4 12.9 0.00 0.00 0.00 73 1013.3
20260905213539 26 290 4.8 14.5 0.00 0.00 0.00 73 1013.2
20260905213057 26 269 8.0 17.7 0.00 0.00 0.00 73 1013.4
20260905212539 26 355 8.0 17.7 0.00 0.00 0.00 71 1013.6
20260905212038 27 319 8.0 16.1 0.00 0.00 0.00 72 1013.7
20260905211558 27 12 4.8 9.7 0.00 0.00 0.00 72 1013.8
20260905211039 27 26 1.6 16.1 0.00 0.00 0.00 71 1013.9
20260905210538 27 0 6.4 16.1 0.00 0.00 0.00 69 1013.8
20260905210051 27 292 11.3 16.1 0.00 0.00 0.00 69 1013.8
20260905205539 28 305 8.0 22.5 0.00 0.00 0.00 70 1013.7
20260905205041 28 279 12.9 22.5 0.00 0.00 0.00 69 1013.5
20260905204557 30 255 4.8 6.4 0.00 0.00 0.00 69 1013.4
20260905204039 30 263 1.6 4.8 0.00 0.00 0.00 68 1013.3
20260905203541 30 0 0.0 4.8 0.00 0.00 0.00 68 1013.4
20260905203101 30 69 1.6 8.0 0.00 0.00 0.00 66 1013.5
20260905202539 30 128 1.6 8.0 0.00 0.00 0.00 63 1013.5
20260905202039 31 69 4.8 11.3 0.00 0.00 0.00 63 1013.5
20260905201555 31 20 4.8 17.7 0.00 0.00 0.00 60 1013.7
20260905201039 31 17 9.7 19.3 0.00 0.00 0.00 62 1013.7
20260905200539 31 48 11.3 22.5 0.00 0.00 0.00 61 1013.7
20260905200106 31 43 9.7 22.5 0.00 0.00 0.00 61 1013.8
20260905195538 31 26 12.9 22.5 0.00 0.00 0.00 60 1013.8
20260905195042 31 15 11.3 22.5 0.00 0.00 0.00 63 1013.7
20260905194557 31 0 4.8 22.5 0.00 0.00 0.00 62 1013.6
20260905194040 31 360 12.9 22.5 0.00 0.00 0.00 62 1013.5
20260905193539 31 19 11.3 19.3 0.00 0.00 0.00 63 1013.6
20260905193108 31 24 8.0 19.3 0.00 0.00 0.00 62 1013.6
20260905192539 31 24 6.4 17.7 0.00 0.00 0.00 62 1013.6
20260905192041 31 43 9.7 24.1 0.00 0.00 0.00 62 1013.6
20260905191554 32 24 9.7 24.1 0.00 0.00 0.00 61 1013.7
20260905191039 32 17 8.0 14.5 0.00 0.00 0.00 60 1013.8
20260905190538 31 352 3.2 14.5 0.00 0.00 0.00 60 1014.0
20260905185539 31 333 11.3 20.9 0.00 0.00 0.00 61 1014.1
20260905185038 31 5 1.6 9.7 0.00 0.00 0.00 60 1014.0
20260905184604 31 269 4.8 14.5 0.00 0.00 0.00 60 1013.9
20260905184039 31 313 6.4 14.5 0.00 0.00 0.00 59 1013.8
20260905183540 31 28 3.2 14.5 0.00 0.00 0.00 61 1013.9
20260905183059 31 68 4.8 19.3 0.00 0.00 0.00 61 1014.0
20260905182539 31 33 11.3 19.3 0.00 0.00 0.00 62 1014.2
20260905182039 31 42 8.0 17.7 0.00 0.00 0.00 62 1014.2
20260905181551 31 34 0.0 14.5 0.00 0.00 0.00 61 1014.2
20260905181039 31 324 6.4 16.1 0.00 0.00 0.00 61 1014.3
20260905180539 31 312 4.8 16.1 0.00 0.00 0.00 61 1014.3
20260905180100 31 308 6.4 14.5 0.00 0.00 0.00 63 1014.4
20260905175539 31 344 3.2 12.9 0.00 0.00 0.00 61 1014.5
20260905175039 31 182 3.2 12.9 0.00 0.00 0.00 62 1014.5
20260905174605 31 5 1.6 8.0 0.00 0.00 0.00 64 1014.5
20260905174042 31 55 0.0 14.5 0.00 0.00 0.00 66 1014.6
20260905173540 30 9 4.8 19.3 0.00 0.00 0.00 66 1014.6
20260905173055 31 339 6.4 19.3 0.00 0.00 0.00 66 1014.8
20260905172539 31 340 0.0 8.0 0.00 0.00 0.00 68 1014.8
20260905172039 30 144 3.2 8.0 0.00 0.00 0.00 68 1014.8
20260905171556 30 40 0.0 8.0 0.00 0.00 0.00 69 1014.9
20260905171039 30 295 4.8 9.7 0.00 0.00 0.00 70 1014.9
20260905170539 30 305 4.8 9.7 0.00 0.00 0.00 68 1015.0
20260905170050 30 274 1.6 9.7 0.00 0.00 0.00 68 1015.0
20260905165539 30 360 4.8 11.3 0.00 0.00 0.00 69 1015.1
20260905165038 30 332 3.2 11.3 0.00 0.00 0.00 69 1015.0
20260905164559 30 352 4.8 8.0 0.00 0.00 0.00 69 1015.1
20260905164039 30 0 1.6 8.0 0.00 0.00 0.00 71 1015.2
20260905163539 30 34 3.2 8.0 0.00 0.00 0.00 71 1015.4
20260905163103 29 215 4.8 8.0 0.00 0.00 0.00 73 1015.4
20260905162542 29 227 3.2 8.0 0.00 0.00 0.00 73 1015.4
20260905162039 29 205 4.8 8.0 0.00 0.00 0.00 74 1015.5
20260905161551 28 227 3.2 8.0 0.00 0.00 0.00 75 1015.7
20260905161039 28 239 6.4 8.0 0.00 0.00 0.00 74 1015.7
20260905160538 28 236 4.8 11.3 0.00 0.00 0.00 76 1015.7
20260905160120 28 232 4.8 11.3 0.00 0.00 0.00 76 1015.8
20260905155540 28 259 6.4 9.7 0.00 0.00 0.00 76 1015.8
20260905155041 28 200 1.6 4.8 0.00 0.00 0.00 77 1015.9
20260905154606 28 50 0.0 6.4 0.00 0.00 0.00 78 1016.0
20260905154042 27 0 1.6 6.4 0.00 0.00 0.00 79 1016.0
20260905153541 27 219 1.6 4.8 0.00 0.00 0.00 80 1016.0
20260905153102 27 252 1.6 4.8 0.00 0.00 0.00 80 1016.1
20260905152540 27 236 1.6 6.4 0.00 0.00 0.00 81 1016.0
20260905152041 27 238 3.2 6.4 0.00 0.00 0.00 81 1016.1
20260905151601 26 238 3.2 6.4 0.00 0.00 0.00 82 1016.1
20260905151040 26 229 4.8 6.4 0.00 0.00 0.00 82 1016.1
20260905150543 26 236 3.2 4.8 0.00 0.00 0.00 83 1016.3
20260905150112 26 229 3.2 6.4 0.00 0.00 0.00 83 1016.3
20260905145539 26 242 3.2 6.4 0.00 0.00 0.00 83 1016.3
20260905145042 25 259 3.2 6.4 0.00 0.00 0.00 83 1016.3
20260905144556 25 238 3.2 6.4 0.00 0.00 0.00 83 1016.3
20260905144041 25 251 4.8 8.0 0.00 0.00 0.00 83 1016.3
20260905143540 25 248 3.2 8.0 0.00 0.00 0.00 84 1016.3
20260905143056 25 263 4.8 8.0 0.00 0.00 0.00 84 1016.3
20260905142540 25 246 3.2 6.4 0.00 0.00 0.00 84 1016.5
20260905142040 25 257 3.2 6.4 0.00 0.00 0.00 84 1016.5
20260905141602 25 248 3.2 6.4 0.00 0.00 0.00 84 1016.5
20260905141040 25 242 3.2 6.4 0.00 0.00 0.00 84 1016.5
20260905140540 25 237 1.6 6.4 0.00 0.00 0.00 84 1016.5
20260905140100 24 234 1.6 6.4 0.00 0.00 0.00 84 1016.5
20260905135541 24 0 1.6 4.8 0.00 0.00 0.00 84 1016.7
20260905135040 24 323 1.6 4.8 0.00 0.00 0.00 84 1016.7
20260905134557 24 9 0.0 3.2 0.00 0.00 0.00 83 1016.8
20260905134040 23 0 0.0 3.2 0.00 0.00 0.00 83 1016.8
20260905133541 23 0 0.0 4.8 0.00 0.00 0.00 82 1016.7
20260905133053 23 88 1.6 4.8 0.00 0.00 0.00 82 1016.9
20260905132540 23 93 1.6 4.8 0.00 0.00 0.00 82 1016.8
20260905132042 23 34 3.2 4.8 0.00 0.00 0.00 81 1016.7
20260905131554 23 92 1.6 6.4 0.00 0.00 0.00 81 1016.8
20260905131040 22 44 1.6 6.4 0.00 0.00 0.00 81 1016.9
20260905130540 22 63 3.2 6.4 0.00 0.00 0.00 81 1016.9
20260905130047 22 67 0.0 4.8 0.00 0.00 0.00 81 1016.9
20260905125540 22 27 1.6 6.4 0.00 0.00 0.00 81 1016.9
20260905125040 22 34 1.6 6.4 0.00 0.00 0.00 81 1016.9
20260905124601 22 29 3.2 6.4 0.00 0.00 0.00 81 1016.9
20260905124040 22 26 3.2 6.4 0.00 0.00 0.00 81 1016.8
20260905123540 22 38 1.6 6.4 0.00 0.00 0.00 81 1016.7
20260905123056 22 0 3.2 6.4 0.00 0.00 0.00 81 1016.7
20260905122541 22 44 1.6 4.8 0.00 0.00 0.00 81 1016.7
20260905122041 22 19 3.2 4.8 0.00 0.00 0.00 81 1016.7
20260905121602 22 10 1.6 4.8 0.00 0.00 0.00 81 1016.7
20260905121042 22 42 1.6 6.4 0.00 0.00 0.00 81 1016.6
20260905120541 22 34 3.2 6.4 0.00 0.00 0.00 81 1016.6
20260905120056 22 20 3.2 6.4 0.00 0.00 0.00 81 1016.5
20260905115544 22 46 0.0 4.8 0.00 0.00 0.00 81 1016.5
20260905115040 22 46 1.6 4.8 0.00 0.00 0.00 81 1016.4
20260905114603 22 33 1.6 4.8 0.00 0.00 0.00 81 1016.4
20260905114041 22 0 1.6 4.8 0.00 0.00 0.00 81 1016.3
20260905113543 22 80 1.6 4.8 0.00 0.00 0.00 81 1016.3
20260905113119 22 46 0.0 3.2 0.00 0.00 0.00 81 1016.1
20260905112540 22 0 0.0 3.2 0.00 0.00 0.00 81 1016.1
20260905112042 22 46 1.6 3.2 0.00 0.00 0.00 81 1016.0
20260905111558 22 46 0.0 3.2 0.00 0.00 0.00 81 1015.8